Flag for Bahrain Weather past 2 weeks in Riffa, Bahrain

Now
81 °F

Clear.


Feels Like: 84 °F
Forecast: 84 / 91 °F
Wind: 6 mph from Northwest

Location: Bahrain International Airport

Current Time: Oct 26, 2014 at 3:50:03 AM

Latest Report: Oct 26, 2014 at 3:00 AM


Visibility: 10 mi

Pressure: 29.86 "Hg

Humidity: 70%

Dew point: 70 °F

Location of RiffaLocation

Historic Weather in Riffa — Graph

°F

Riffa temperature yesterday

Maximum temperature yesterday: 86 °F (at 11:00 AM)
Minimum temperature yesterday: 79 °F (at 3:00 AM)
Average temperature yesterday: 83 °F

Past Weeks' High & Low Weather Summary

 TemperatureHumidityPressure
High100 °F (Oct 20, 2:00 PM)75% (Oct 17, 6:00 AM)30.04 "Hg (Oct 17, 6:00 AM)
Low79 °F (Oct 24, 12:00 AM)17% (Oct 20, 2:00 PM)29.80 "Hg (Oct 13, 2:00 AM)
Average87 °F55%29.89 "Hg
* Reported Oct 11 2:00 AM — Oct 26 2:00 AM, Riffa, Weather by CustomWeather, © 2014

Note: Actual official high and low records may vary slightly from our data, if they occured in-between our weather recording intervals... More about our weather records

Advertising

Riffa weather history for previous 24 hours

 ConditionsComfort  
Time TempWeatherWind HumidityBarometerVisibility
2:00 AM
Oct 26
82 °FClear.6 mph66%29.86 "Hg10 mi
1:00 AM81 °FClear.6 mph66%29.86 "Hg10 mi
12:00 AM82 °FClear.6 mph66%29.86 "Hg10 mi
11:00 PM
Oct 25
82 °FClear.6 mph62%29.89 "Hg10 mi
10:00 PM82 °FClear.6 mph58%29.89 "Hg10 mi
9:00 PM84 °FClear.7 mph55%29.89 "Hg10 mi
8:00 PM84 °FClear.8 mph58%29.89 "Hg10 mi
7:00 PM84 °FClear.8 mph55%29.86 "Hg10 mi
6:00 PM84 °FClear.10 mph55%29.86 "Hg10 mi
5:00 PM84 °FClear.13 mph55%29.83 "Hg10 mi
4:00 PM86 °FPassing clouds.17 mph55%29.83 "HgN/A
3:00 PM86 °FPassing clouds.17 mph59%29.83 "HgN/A
2:00 PM86 °FPassing clouds.17 mph59%29.83 "Hg5 mi
1:00 PM86 °FPassing clouds.15 mph59%29.86 "Hg5 mi
12:00 PM86 °FSunny.15 mph52%29.86 "Hg5 mi
11:00 AM86 °FSunny.15 mph55%29.89 "Hg10 mi
10:00 AM84 °FSunny.14 mph58%29.92 "Hg10 mi
8:59 AM82 °FSunny.13 mph62%29.92 "Hg10 mi
8:00 AM81 °FSunny.10 mph66%29.92 "Hg10 mi
7:00 AM81 °FSunny.8 mph70%29.89 "Hg10 mi
6:00 AM79 °FSunny.7 mph74%29.89 "Hg10 mi
5:00 AM79 °FClear.6 mph70%29.86 "Hg10 mi
4:00 AM79 °FClear.6 mph70%29.86 "Hg10 mi
3:00 AM79 °FClear.8 mph61%29.86 "Hg10 mi
Weather by CustomWeather, © 2014

See weather overviewHow to use our weather pages